Bartlesville, OK

8:52 AM CDT on September 27, 2016 (GMT -0500)
Bartlesville Municipal

Weather History for KBVO - January, 2013

Change the Weather History Date:

Monday, January 7, 2013

  Actual Average Record
Temperature  
Mean Temperature 33 °F -  
Max Temperature 52 °F 41 °F 50 °F (2016)
Min Temperature 14 °F 20 °F 3 °F (2015)
Degree Days  
Heating Degree Days 32    
Moisture  
Dew Point 21 °F    
Average Humidity 70    
Maximum Humidity 92    
Minimum Humidity 35    
Precipitation  
Precipitation 0.00 in - - ()
Sea Level Pressure  
Sea Level Pressure 30.24 in    
Wind  
Wind Speed 2 mph (South)    
Max Wind Speed 12 mph    
Max Gust Speed 16 mph    
Visibility 10 miles    
Events      
Averages and records for this station are not official NWS values.
T = Trace of Precipitation, MM = Missing Value Source: NWS Daily Summary

Daily Weather History Graph

Daily Weather History Graph

Search for Another Location

Airport or City:

Trip Planner

Search our weather history database for the weather conditions in past years. The results will help you decide how hot, cold, wet, or windy it might be!

Date:

Astronomy

Jan. 07, 2013 Rise Set
Actual Time 7:37 AM CST 5:24 PM CST
Civil Twilight 7:08 AM CST 5:52 PM CST
Nautical Twilight 6:36 AM CST 6:24 PM CST
Astronomical Twilight 6:05 AM CST 6:56 PM CST
Moon 3:03 AM CST (1/7) 1:34 PM CST (1/7)
Length of Visible Light 10h 44m
Length of Day
9h 47m
Waning Crescent, 22% of the Moon is Illuminated
Jan 7
Waning Crescent
Jan 11
New
Jan 18
First Quarter
Jan 26
Full
Feb 3
Last Quarter

Hourly Weather History & Observations

Time (CST) Temp. Windchill Dew Point Humidity Pressure Visibility Wind Dir Wind Speed Gust Speed Precip Events Conditions
12:53 AM 18.0 °F - 16.0 °F 92% 30.36 in 10.0 mi Calm Calm - N/A   Clear
1:53 AM 18.0 °F - 15.1 °F 88% 30.34 in 10.0 mi Calm Calm - N/A   Clear
2:53 AM 16.0 °F - 14.0 °F 92% 30.33 in 10.0 mi Calm Calm - N/A   Clear
3:53 AM 16.0 °F - 14.0 °F 92% 30.32 in 10.0 mi Calm Calm - N/A   Clear
4:53 AM 15.1 °F - 12.9 °F 91% 30.30 in 10.0 mi Calm Calm - N/A   Clear
5:53 AM 14.0 °F - 12.0 °F 92% 30.32 in 10.0 mi Calm Calm - N/A   Clear
6:53 AM 14.0 °F - 12.0 °F 92% 30.32 in 10.0 mi Calm Calm - N/A   Clear
7:53 AM 15.1 °F - 12.0 °F 88% 30.32 in 10.0 mi Calm Calm - N/A   Clear
8:53 AM 25.0 °F - 21.9 °F 88% 30.33 in 10.0 mi Calm Calm - N/A   Clear
9:53 AM 35.1 °F 32.2 °F 26.1 °F 70% 30.32 in 10.0 mi Variable 3.5 mph - N/A   Clear
10:53 AM 43.0 °F 37.7 °F 26.1 °F 51% 30.30 in 10.0 mi South 9.2 mph - N/A   Clear
11:53 AM 46.9 °F - 25.0 °F 42% 30.26 in 10.0 mi South 8.1 mph - N/A   Clear
1:53 PM 50.0 °F - 24.1 °F 36% 30.19 in 10.0 mi SSW 11.5 mph - N/A   Clear
2:53 PM 52.0 °F - 25.0 °F 35% 30.17 in 10.0 mi South 9.2 mph 16.1 mph N/A   Clear
3:53 PM 51.1 °F - 25.0 °F 36% 30.16 in 10.0 mi South 8.1 mph - N/A   Clear
4:53 PM 46.9 °F - 26.1 °F 44% 30.16 in 10.0 mi South 3.5 mph - N/A   Clear
5:53 PM 39.9 °F 36.7 °F 27.0 °F 60% 30.15 in 10.0 mi South 4.6 mph - N/A   Clear
6:53 PM 42.1 °F 38.4 °F 27.0 °F 55% 30.15 in 10.0 mi SSW 5.8 mph - N/A   Clear
8:53 PM 32.0 °F - 26.1 °F 79% 30.13 in 10.0 mi Calm Calm - N/A   Clear
9:53 PM 32.0 °F 28.7 °F 25.0 °F 75% 30.12 in 10.0 mi South 3.5 mph - N/A   Clear
10:53 PM 39.9 °F 34.5 °F 28.9 °F 65% 30.11 in 10.0 mi South 8.1 mph - N/A   Clear
11:53 PM 35.1 °F 32.2 °F 28.0 °F 76% 30.11 in 10.0 mi SSE 3.5 mph - N/A   Clear